Weather History for KPRG - May, 2013

Change the Weather History Date:

Wednesday, May 1, 2013

  Actual Average (KHUF) Record (KHUF)
Temperature  
Mean Temperature 68 °F 58 °F  
Max Temperature 80 °F 69 °F 84 °F (1962)
Min Temperature 57 °F 47 °F 31 °F (1963)
Degree Days  
Heating Degree Days 0 7  
Month to date heating degree days 7  
Since 1 July heating degree days 5227  
Cooling Degree Days 4 1  
Month to date cooling degree days 1  
Year to date cooling degree days 16  
Growing Degree Days 18 (Base 50)    
Moisture  
Dew Point 56 °F    
Average Humidity 66    
Maximum Humidity 89    
Minimum Humidity 39    
Precipitation  
Precipitation 0.00 in 0.21 in 2.02 in (1962)
Month to date precipitation 0.21  
Year to date precipitation 12.02  
Sea Level Pressure  
Sea Level Pressure 30.10 in    
Wind  
Wind Speed 6 mph (SSE)    
Max Wind Speed 13 mph    
Max Gust Speed 20 mph    
Visibility 10 miles    
Events      
T = Trace of Precipitation, MM = Missing Value Source: NWS Daily Summary

Daily Weather History Graph

Daily Weather History Graph

Search for Another Location

Airport or City:

Trip Planner

Search our weather history database for the weather conditions in past years. The results will help you decide how hot, cold, wet, or windy it might be!

Date:

Astronomy

May. 01, 2013 Rise Set
Actual Time 5:51 AM CDT 7:45 PM CDT
Civil Twilight 5:21 AM CDT 8:14 PM CDT
Nautical Twilight 4:46 AM CDT 8:50 PM CDT
Astronomical Twilight 4:08 AM CDT 9:28 PM CDT
Moon 12:54 AM CDT (5/1) 11:28 AM CDT (5/1)
Length of Visible Light 14h 52m
Length of Day
13h 54m
Waning Gibbous, 59% of the Moon is Illuminated
May 1
Waning Gibbous
May 2
Last Quarter
May 9
New
May 17
First Quarter
May 24
Full

Hourly Weather History & Observations

Time (CDT) Temp. Heat Index Dew Point Humidity Pressure Visibility Wind Dir Wind Speed Gust Speed Precip Events Conditions
12:15 AM 61.3 °F - 57.2 °F 86% 30.01 in 10.0 mi SSE 8.1 mph - N/A   Clear
12:35 AM 62.1 °F - 57.4 °F 85% 30.01 in 10.0 mi SSE 8.1 mph - N/A   Clear
12:55 AM 61.0 °F - 57.2 °F 87% 30.02 in 10.0 mi SE 6.9 mph - N/A   Clear
1:15 AM 60.6 °F - 56.5 °F 86% 30.02 in 10.0 mi SSE 6.9 mph - N/A   Clear
1:35 AM 59.7 °F - 56.1 °F 88% 30.02 in 10.0 mi SSE 8.1 mph - N/A   Clear
1:55 AM 59.4 °F - 55.6 °F 87% 30.02 in 10.0 mi SSE 8.1 mph - N/A   Clear
2:15 AM 59.0 °F - 55.2 °F 87% 30.03 in 10.0 mi SSE 6.9 mph - N/A   Clear
2:35 AM 58.5 °F - 54.7 °F 87% 30.03 in 10.0 mi SSE 4.6 mph - N/A   Clear
2:55 AM 57.7 °F - 54.5 °F 89% 30.04 in 10.0 mi SSE 4.6 mph - N/A   Clear
3:15 AM 57.4 °F - 54.0 °F 88% 30.04 in 10.0 mi SSE 4.6 mph - N/A   Clear
3:35 AM 57.2 °F - 53.6 °F 88% 30.04 in 10.0 mi SE 4.6 mph - N/A   Clear
3:55 AM 57.7 °F - 53.6 °F 86% 30.05 in 10.0 mi SE 4.6 mph - N/A   Clear
4:15 AM 58.5 °F - 53.6 °F 84% 30.05 in 10.0 mi SE 3.5 mph - N/A   Clear
4:35 AM 58.8 °F - 53.6 °F 83% 30.05 in 10.0 mi ESE 3.5 mph - N/A   Clear
4:55 AM 59.2 °F - 53.6 °F 82% 30.06 in 10.0 mi Calm Calm - N/A   Clear
5:15 AM 58.8 °F - 53.2 °F 82% 30.07 in 10.0 mi ESE 3.5 mph - N/A   Clear
5:35 AM 59.2 °F - 53.1 °F 80% 30.08 in 10.0 mi ESE 4.6 mph - N/A   Clear
5:55 AM 59.0 °F - 53.6 °F 82% 30.09 in 10.0 mi ESE 4.6 mph - N/A   Clear
6:15 AM 58.8 °F - 52.9 °F 81% 30.10 in 10.0 mi ESE 4.6 mph - N/A   Clear
6:35 AM 58.3 °F - 53.4 °F 84% 30.10 in 10.0 mi ESE 3.5 mph - N/A   Clear
6:55 AM 59.9 °F - 53.8 °F 80% 30.10 in 10.0 mi SE 5.8 mph - N/A   Clear
7:15 AM 61.0 °F - 54.7 °F 80% 30.11 in 10.0 mi SE 4.6 mph - N/A   Clear
7:35 AM 62.6 °F - 55.6 °F 78% 30.12 in 10.0 mi SE 5.8 mph - N/A   Clear
7:55 AM 64.0 °F - 56.7 °F 77% 30.12 in 10.0 mi SE 8.1 mph - N/A   Clear
8:15 AM 65.5 °F - 56.8 °F 74% 30.12 in 10.0 mi SE 9.2 mph - N/A   Clear
8:35 AM 67.5 °F - 58.5 °F 73% 30.12 in 10.0 mi SE 6.9 mph - N/A   Clear
8:55 AM 69.6 °F - 58.1 °F 67% 30.12 in 10.0 mi SSE 6.9 mph - N/A   Clear
9:15 AM 71.6 °F - 58.8 °F 64% 30.12 in 10.0 mi SSE 5.8 mph - N/A   Clear
9:35 AM 73.6 °F - 57.2 °F 56% 30.12 in 10.0 mi South 6.9 mph - N/A   Clear
9:55 AM 74.8 °F - 56.7 °F 53% 30.13 in 10.0 mi South 5.8 mph - N/A   Clear
10:15 AM 75.7 °F - 57.7 °F 53% 30.13 in 10.0 mi South 6.9 mph - N/A   Clear
10:35 AM 76.3 °F - 57.0 °F 51% 30.14 in 10.0 mi South 5.8 mph - N/A   Clear
10:55 AM 77.0 °F - 59.0 °F 54% 30.14 in 10.0 mi South 6.9 mph - N/A   Clear
11:15 AM 77.2 °F - 56.5 °F 49% 30.14 in 10.0 mi South 5.8 mph - N/A   Clear
11:35 AM 77.7 °F - 56.5 °F 48% 30.14 in 10.0 mi South 5.8 mph - N/A   Clear
11:55 AM 78.8 °F - 57.2 °F 47% 30.13 in 10.0 mi South 5.8 mph - N/A   Clear
12:15 PM 78.1 °F - 56.3 °F 47% 30.13 in 10.0 mi South 8.1 mph - N/A   Clear
12:35 PM 78.6 °F - 56.5 °F 46% 30.13 in 10.0 mi South 8.1 mph - N/A   Clear
12:55 PM 78.8 °F - 59.0 °F 51% 30.13 in 10.0 mi South 6.9 mph - N/A   Clear
1:15 PM 78.4 °F - 55.9 °F 46% 30.13 in 10.0 mi SE 9.2 mph - N/A   Scattered Clouds
1:35 PM 79.7 °F - 56.7 °F 45% 30.13 in 10.0 mi South 4.6 mph 16.1 mph N/A   Scattered Clouds
1:55 PM 79.9 °F - 56.1 °F 44% 30.13 in 10.0 mi South 6.9 mph - N/A   Clear
2:15 PM 79.9 °F - 55.4 °F 43% 30.13 in 10.0 mi SSE 9.2 mph - N/A   Clear
2:35 PM 80.1 °F 80.1 °F 55.2 °F 42% 30.13 in 10.0 mi SSE 10.4 mph 17.3 mph N/A   Clear
2:55 PM 80.6 °F 80.3 °F 53.6 °F 39% 30.13 in 10.0 mi SE 8.1 mph 11.5 mph N/A   Clear
3:15 PM 80.2 °F 80.2 °F 54.5 °F 41% 30.13 in 10.0 mi SE 12.7 mph 19.6 mph N/A   Clear
3:35 PM 80.6 °F 80.6 °F 55.9 °F 43% 30.13 in 10.0 mi SE 12.7 mph 17.3 mph N/A   Clear
3:55 PM 80.4 °F 80.2 °F 54.0 °F 40% 30.13 in 10.0 mi South 11.5 mph - N/A   Clear
4:15 PM 80.6 °F 80.4 °F 54.1 °F 40% 30.12 in 10.0 mi SE 11.5 mph - N/A   Clear
4:35 PM 80.4 °F 80.2 °F 54.3 °F 40% 30.12 in 10.0 mi SSE 9.2 mph 16.1 mph N/A   Clear
4:55 PM 80.6 °F 80.3 °F 53.8 °F 39% 30.12 in 10.0 mi SSE 9.2 mph - N/A   Clear
5:15 PM 80.4 °F 80.3 °F 54.7 °F 41% 30.12 in 10.0 mi South 9.2 mph - N/A   Clear
5:35 PM 80.1 °F 80.1 °F 55.2 °F 42% 30.12 in 10.0 mi South 6.9 mph - N/A   Clear
5:55 PM 79.9 °F - 54.7 °F 42% 30.12 in 10.0 mi South 5.8 mph - N/A   Clear
6:15 PM 79.2 °F - 55.4 °F 44% 30.12 in 10.0 mi South 5.8 mph - N/A   Clear
6:35 PM 78.3 °F - 57.9 °F 49% 30.12 in 10.0 mi SE 3.5 mph - N/A   Clear
6:55 PM 77.0 °F - 58.8 °F 53% 30.12 in 10.0 mi SE 3.5 mph - N/A   Clear
7:15 PM 76.3 °F - 58.5 °F 54% 30.12 in 10.0 mi Calm Calm - N/A   Clear
7:35 PM 74.8 °F - 59.0 °F 58% 30.12 in 10.0 mi Calm Calm - N/A   Clear
7:55 PM 73.4 °F - 59.0 °F 61% 30.12 in 10.0 mi Calm Calm - N/A   Clear
8:15 PM 69.6 °F - 60.3 °F 72% 30.12 in 10.0 mi Calm Calm - N/A   Clear
8:35 PM 69.6 °F - 58.8 °F 68% 30.13 in 10.0 mi Calm Calm - N/A   Unknown
8:55 PM 67.8 °F - 59.4 °F 74% 30.13 in 10.0 mi Calm Calm - N/A   Clear
9:35 PM 66.6 °F - 59.9 °F 79% 30.14 in 10.0 mi Calm Calm - N/A   Clear
9:55 PM 66.2 °F - 60.1 °F 81% 30.14 in 10.0 mi Calm Calm - N/A   Clear
10:15 PM 65.3 °F - 59.9 °F 83% 30.14 in 10.0 mi Calm Calm - N/A   Clear
10:35 PM 64.2 °F - 59.0 °F 83% 30.14 in 10.0 mi Calm Calm - N/A   Clear
10:55 PM 64.4 °F - 59.2 °F 83% 30.14 in 10.0 mi Calm Calm - N/A   Clear
11:15 PM 63.1 °F - 58.6 °F 85% 30.13 in 10.0 mi Calm Calm - N/A   Clear
11:35 PM 62.4 °F - 57.7 °F 85% 30.13 in 10.0 mi Calm Calm - N/A   Clear
11:55 PM 62.4 °F - 57.4 °F 84% 30.13 in 10.0 mi Calm Calm - N/A   Clear